Location: Wolf Lake
(46.8518°N, 80.6381°W)
Time: 18:57:52
(UTC-04:00)

ISS - Visible Passes

Search period start: 14 March 2026 00:00
Search period end: 24 March 2026 00:00
Orbit: 417 x 426 km, 51.6° (Epoch: 14 March)

Date Brightness Start Highest point End Pass type
(mag) Time Alt. Az. Time Alt. Az. Time Alt. Az.
14 Mar -3.6 20:11:24 10° SW 20:14:44 56° SSE 20:17:54 11° ENE visible
14 Mar -2.2 21:48:26 10° W 21:50:55 36° NW 21:50:55 36° NW visible
15 Mar -3.1 21:01:29 10° W 21:04:50 52° NNW 21:06:15 29° NE visible
15 Mar -0.3 22:38:57 10° WNW 22:39:16 12° WNW 22:39:16 12° WNW visible
16 Mar -3.5 20:14:35 10° WSW 20:17:59 69° NNW 20:21:23 10° ENE visible
16 Mar -2.0 21:52:01 10° WNW 21:54:30 31° NNW 21:54:30 31° NNW visible
17 Mar -2.5 21:05:03 10° WNW 21:08:15 37° N 21:09:40 25° NE visible
17 Mar -0.3 22:42:18 10° WNW 22:42:40 12° WNW 22:42:40 12° WNW visible
18 Mar -2.7 20:18:02 10° W 20:21:18 42° NNW 20:24:34 10° ENE visible
18 Mar -2.0 21:55:25 10° WNW 21:57:45 31° NNW 21:57:45 31° NNW visible
19 Mar -2.5 21:08:28 10° WNW 21:11:38 35° N 21:12:48 27° NE visible
19 Mar -0.4 22:45:26 10° WNW 22:45:48 12° WNW 22:45:48 12° WNW visible
20 Mar -2.5 20:21:27 10° WNW 20:24:38 35° N 20:27:47 10° ENE visible
20 Mar -2.2 21:58:33 10° WNW 22:00:48 35° NW 22:00:48 35° NW visible
21 Mar -3.0 21:11:38 10° WNW 21:14:55 44° NNE 21:15:47 35° NE visible
21 Mar -0.4 22:48:31 10° WNW 22:48:47 12° WNW 22:48:47 12° WNW visible
22 Mar -2.7 20:24:40 10° WNW 20:27:54 38° N 20:30:46 12° ENE visible
22 Mar -2.3 22:01:33 10° WNW 22:03:46 37° WNW 22:03:46 37° WNW visible
23 Mar -3.8 21:14:37 10° WNW 21:18:01 74° NNE 21:18:45 50° E visible
